www.pogodaiklimat.ru

Погода и климат >> Архив погоды >> Россия >> Краснодарский край >> Краснодар


АРХИВ ПОГОДЫ в Краснодаре

Время (UTC), дата Ветер
(напр.,м/с)
 
Видим.   Явления Облачность Т
(С)
Тd
(С)
f
(%)
Тe
(С)
Тes
(С)
Комфортность P
(гПа)
Po
(гПа)
Тmin
(С)
Tmax
(С)
R
(мм)
R24
(мм)
S
(см)
12 12.06 В 6 10 км 9/0
[Ac trans Ci fib]
+30.5 +17.8 47 +35 +38 очень
душно
1007.8 1003.9
15 12.06 С 1 10 км 10/8 600 м
[Cb cap Ac As]
+26.7 +18.9 62 +32 +32 очень
душно
1008.2 1004.3 +31.2
18 12.06 С 2 10 км {ливн. осадки} 8/4 1000 м
[Cb cap Ac As Ci fib]
+23.7 +18.7 74 +28 +28 душно 1008.2 1004.2
21 12.06 С 2 10 км 4/3 1000 м
[Cb calv Ac As Ci fib]
+21.7 +18.2 80 +26 +26 душно 1008.3 1004.3
00 13.06 В 1 10 км 6/4 1000 м
[Cb cap Ac As]
+21.0 +17.3 79 +26 +26 душно 1008.9 1004.9
03 13.06 З 1 10 км 9/5 1000 м
[Cb cap Ac As]
+21.9 +19.5 86 +27 +28 душно 1008.6 1004.6 +19.9 0.5
06 13.06 ЮЗ 2 10 км 6/0
[Ac trans]
+26.7 +19.1 63 +32 +39 очень
душно
1009.7 1005.8
09 13.06 Ю 4 10 км 5/5 600 м
[Cb cap]
+29.0 +18.8 54 +34 +41 очень
душно
1010.1 1006.2
12 13.06 ЮВ 3 10 км {ливн. осадки} 9/9 1000 м
[Cb cap]
+28.9 +16.6 47 +32 +33 душно 1010.5 1006.6
15 13.06 СЗ 1 10 км {гроза, ливн. осадки} 10/8 1000 м
[Cb cap]
+24.7 +15.0 55 +28 +28 душно 1010.6 1006.6 +29.9 2
18 13.06 ЮВ 2 10 км {гроза, ливн. осадки} 8/5 1000 м
[Cb cap Ac trans]
+22.3 +20.1 87 +28 +28 душно 1011.1 1007.1
21 13.06 СВ 2 10 км 4/3 1000 м
[Cb cap Ac trans]
+21.1 +18.5 85 +25 +25 комфорт 1011.5 1007.5
00 14.06 Ю 2 10 км 5/5 1000 м
[Cb cap]
+21.4 +17.4 78 +25 +25 комфорт 1012.1 1008.1
03 14.06 СВ 2 10 км 4/3 1000 м
[Cb cap Ac trans]
+21.3 +18.5 84 +26 +26 душно 1012.7 1008.7 +19.3
06 14.06 СВ 6 10 км 8/0
[Ac trans Ci]
+25.0 +14.5 52 +28 +30 жарко 1013.3 1009.3
09 14.06 СВ 6 10 км 6/0
[Ac trans Ci fib]
+28.4 +14.0 41 +30 +36 жарко 1014.0 1010.1
12 14.06 СВ 7 10 км 6/3 1000 м
[Cb calv Ac trans Ci fib]
+30.3 +12.8 34 +31 +33 жарко 1013.2 1009.3
15 14.06 СВ 6 10 км 6/3 1000 м
[Cb cap Ac trans Ci fib]
+30.0 +11.5 32 +31 +31 жарко 1012.2 1008.3 +31.3
18 14.06 С 6 10 км 8/3 1000 м
[Cb calv Ac trans Ci fib]
+26.7 +10.6 36 +27 +27 жарко 1012.1 1008.1
21 14.06 СВ 4 10 км 4/0
[Ci fib]
+23.6 +8.2 37 +24 +24 комфорт 1012.2 1008.2
00 15.06 С 2 10 км 4/0
[Ci fib]
+18.9 +9.5 54 +20 +20 тепло 1012.1 1008.0
03 15.06 С 2 10 км 3/0
[Ci fib]
+19.4 +10.6 57 +21 +22 комфорт 1012.3 1008.2 +17.7
06 15.06 СВ 3 10 км ясно +26.3 +15.5 51 +29 +38 жарко 1012.1 1008.1
09 15.06 В 6 10 км 3/0
[Ci]
+31.3 +13.4 34 +33 +40 жарко 1011.4 1007.5
12 15.06 СВ 5 10 км 6/0
[Ac cast Cc]
+33.5 +12.8 29 +34 +39 очень
жарко
1010.1 1006.2
15 15.06 СВ 4 10 км 3/0
[Ac trans Ci fib]
+31.7 +11.4 29 +32 +33 жарко 1009.1 1005.2 +33.7
18 15.06 С 3 10 км 3/0
[Ci fib]
+26.0 +13.2 45 +28 +28 жарко 1009.3 1005.3
21 15.06 С 3 10 км 3/0
[Ci fib]
+23.4 +10.5 44 +25 +25 комфорт 1009.4 1005.4
00 16.06 С 2 10 км 4/0
[Ci fib]
+19.2 +11.2 60 +21 +21 комфорт 1009.0 1004.9
03 16.06 С 1 10 км 8/0
[Ci fib]
+20.8 +12.0 57 +24 +25 комфорт 1008.9 1004.9 +17.6
06 16.06 ЮВ 1 10 км ясно +26.9 +17.0 55 +31 +43 душно 1009.2 1005.2
09 16.06 В 2 10 км ясно +32.0 +16.6 40 +35 +54 опасность
солнечного
удара
1008.9 1005.0
12 16.06 В 3 10 км 8/6 1000 м
[Cb calv Ci fib]
+34.1 +14.6 31 +36 +40 душно 1007.9 1004.0
15 16.06 СВ 2 10 км 10/10 1000 м
[Cb calv]
+30.5 +16.4 43 +34 +34 очень
душно
1007.6 1003.7 +34.4
18 16.06 З 2 10 км 10/0
[Ac und]
+25.4 +19.4 69 +31 +31 очень
душно
1007.4 1003.4
21 16.06 Ю 2 10 км 4/0
[Ac trans]
+21.5 +18.3 82 +26 +26 душно 1007.8 1003.8
00 17.06 СЗ 2 10 км 4/0
[]
+22.2 +19.1 83 +28 +28 душно 1008.3 1004.3
03 17.06 СЗ 1 10 км 5/0
[Ac trans]
+21.5 +17.7 79 +26 +27 душно 1008.7 1004.7 +19.5
06 17.06 СЗ 3 10 км ясно +26.2 +16.6 56 +30 +39 душно 1009.3 1005.3
09 17.06 С 4 10 км 1/0
[Ac trans]
+30.0 +15.3 41 +33 +45 душно 1009.8 1005.9
12 17.06 СВ 4 10 км ясно +32.9 +11.6 27 +33 +42 жарко 1009.0 1005.1
15 17.06 СВ 4 10 км 1/0
[Ac trans]
+31.7 +11.8 30 +32 +34 жарко 1008.6 1004.7 +33.4
18 17.06 С 3 10 км ясно +26.2 +14.0 47 +28 +28 жарко 1009.6 1005.6
21 17.06 СВ 5 10 км ясно +24.1 +11.8 46 +26 +26 жарко 1010.3 1006.3
00 18.06 С 4 10 км ясно +21.3 +10.6 50 +23 +23 комфорт 1010.0 1006.0
03 18.06 С 3 10 км ясно +20.0 +11.0 56 +22 +23 комфорт 1011.2 1007.1 +18.4
06 18.06 СВ 3 10 км ясно +26.3 +12.2 42 +28 +37 жарко 1011.5 1007.5
09 18.06 СВ 6 10 км 1/1 1000 м
[Cu hum]
+31.9 +11.7 29 +32 +39 жарко 1010.8 1006.9
12 18.06 СВ 5 10 км 1/1 1000 м
[Cu hum]
+33.4 +10.6 25 +33 +39 жарко 1010.0 1006.1
15 18.06 СВ 4 10 км 1/0
[Ac trans]
+32.1 +9.5 25 +31 +33 жарко 1009.4 1005.5 +33.7
18 18.06 С 3 10 км ясно +25.4 +9.1 36 +26 +26 жарко 1009.8 1005.8
21 18.06 С 3 10 км ясно +22.8 +9.6 43 +24 +24 комфорт 1010.5 1006.5
00 19.06 СЗ 1 10 км ясно +19.3 +11.0 59 +21 +21 комфорт 1010.7 1006.6
03 19.06 С 2 10 км ясно +19.7 +11.8 60 +22 +23 комфорт 1010.4 1006.3 +17.5
06 19.06 СВ 2 10 км ясно +26.8 +10.8 37 +28 +38 жарко 1010.6 1006.6
09 19.06 СВ 4 10 км ясно +33.0 +9.3 23 +32 +45 жарко 1009.9 1006.0

 

Местоположение метеостанции Краснодар (Краснодарский край, Россия): широта 45.05 долгота 39.03 высота над уровнем моря 29 м.

В архиве по умолчанию представлена погода в Краснодаре за последнюю неделю. Архивные данные за месяц целиком и за предыдущие месяцы, начиная с января 2011 года, Вы можете получить, выбрав интересующий диапазон дат из раскрывающегося списка и нажав кнопку "Ввод!".


*Определитесь, кто Вы:
робот инопланетянин человек

Внимание! Время в таблицах - всемирное. Для получения местного времени необходимо прибавить поправку, которая равна 3 ч.

Смотрите также архив погоды в соседних городах и на ближайших метеорологических станциях:

Погода в Горячем Ключе (Краснодарский край, Россия) (47 км)
Погода в Усть-Лабинске (Краснодарский край, Россия) (58 км)
Погода в Кореновске (Краснодарский край, Россия) (59 км)
Погода в Тимашевске (Краснодарский край, Россия) (65 км)
Погода в Славянске-на-Кубани (Краснодарский край, Россия) (76 км)
Погода в Белореченске (Краснодарский край, Россия) (76 км)
Погода в Крымске (Краснодарский край, Россия) (82 км)
Погода в Джубге (Краснодарский край, Россия) (84 км)
Погода в Горном (Краснодарский край, Россия) (88 км)
Погода в Геленджике (Краснодарский край, Россия) (92 км)

Пояснения к столбцам:

Ветер - указаны скорость ветра в м/с - средняя за 10 мин, порывы в срок и между сроками (в фигурных скобках) и направление, откуда дует ветер: С - северный, СВ - северо-восточный, В - восточный, ЮВ - юго-восточный, Ю - южный, ЮЗ - юго-западный, З - западный, СЗ - северо-западный.
Видимость - горизонтальная дальность видимости в метрах или километрах. При видимости от 1 до 10 км при отсутствии осадков обычно наблюдается дымка, при ухудшении видимости до 1 км и менее - туман. В сухую погоду видимость может ухудшаться дымом, пылью или мглою.
Явления - указаны атмосферные явления, наблюдавшиеся в срок или в последний час перед сроком; фигурными скобками обозначены явления, наблюдавшиеся между сроками (за 1-3 часа до срока); квадратными скобками обозначены град или гололедные отложения с указанием их диаметра в мм.
Облачность - указаны через наклонную черту общая и нижняя облачность в баллах и высота нижней границы облаков в метрах; квадратными скобками обозначены формы облаков: Ci - перистые, Cs - перисто-слоистые, Cc - перисто-кучевые, Ac - высококучевые, As - высокослоистые, Sc - слоисто-кучевые, Ns - слоисто-дождевые, Cu - кучевые, Cb - кучево-дождевые. Подробнее классификацию облаков см. в Атласе облаков (PDF).
T - Температура воздуха - температура, измеренная на высоте 2 м над землей.
Td - Температура точки росы - температура, при понижении до которой содержащийся в воздухе водяной пар достигнет насыщения.
f - Относительная влажность воздуха - влажноcть воздуха, измеренная на высоте 2 м над землей.
Te - Эффективная температура - температура, которую ощущает одетый по сезону человек в тени. Характеристика душности погоды. При расчете учитывается влияние влажности воздуха и скорости ветра на теплоощущения человека.
Tes - Эффективная температура на солнце - температура, которую ощущает человек, с поправкой на солнечный нагрев. Характеристика знойности погоды. Зависит от высоты солнца над горизонтом, облачности и скорости ветра. Ночью, в пасмурную погоду, а также при ветре 12 м/с и более поправка равна нулю.
P - Атмосферное давление - приведенное к уровню моря атмосферное давление.
Po - Атмосферное давление - измеренное на уровне метеостанции атмосферное давление.
Tmin - Минимальная температура - минимум температуры воздуха на высоте 2 м над землей.
Tmax - Максимальная температура - максимум температуры воздуха на высоте 2 м над землей.
R - Количество осадков - Количество выпавших осадков за период времени, мм. При наведении курсора мыши на число - период времени, за который выпало указанное количество осадков.
R24 - Количество осадков - Количество выпавших осадков за 24 часа, мм.
S - Снежный покров - Высота снежного покрова, см. При наведении курсора мыши на число - состояние снежного покрова и степень покрытия местности в баллах.